Home   Weather   42°16'N, 84°27'W   Past weeks
Flag for USA

Past Weather in 42°16'N, 84°27'W, USA — Yesterday and Last 2 Weeks

Now
49 °F

Sunny.


Feels Like: 49 °F
Forecast: 54 / 34 °F
Wind: No wind

Location: Capital City Airport

Current Time: Oct 18, 2019 at 12:22:46 pm

Latest Report: Oct 18, 2019 at 11:53 am


Visibility: 10 mi

Pressure: 30.12 "Hg

Humidity: 61%

Dew Point: 36 °F

Location of 42°16'N, 84°27'WLocation

Past Weather in 42°16'N, 84°27'W — Graph

°F

42°16'N, 84°27'W Temperature Yesterday

Maximum temperature yesterday: 52 °F (at 3:53 pm)
Minimum temperature yesterday: 38 °F (at 6:53 am)
Average temperature yesterday: 45 °F

High & Low Weather Summary for the Past Weeks

 TemperatureHumidityPressure
High71 °F (Oct 10, 2:53 pm)97% (Oct 3, 10:04 am)30.42 "Hg (Oct 3, 10:04 am)
Low32 °F (Oct 15, 4:53 am)35% (Oct 7, 3:53 pm)29.59 "Hg (Oct 16, 9:43 am)
Average52 °F73%30.03 "Hg
* Reported Oct 3 10:04 am — Oct 18 10:53 am, 42°16'N, 84°27'W. Weather by CustomWeather, © 2019

Note: Actual official high and low records may vary slightly from our data, if they occured in-between our weather recording intervals... More about our weather records

Advertising

42°16'N, 84°27'W Weather History for the Previous 24 Hours

Scroll right to see more
 ConditionsComfort  
Time TempWeatherWind HumidityBarometerVisibility
10:53 am
Fri, Oct 18
46 °FSunny.No wind71%30.13 "Hg10 mi
9:53 am42 °FSunny.3 mph79%30.14 "Hg10 mi
8:53 am34 °FSunny.No wind92%30.12 "Hg10 mi
7:53 am32 °FClear.No wind92%30.12 "Hg9 mi
6:53 am32 °FClear.3 mph92%30.11 "Hg10 mi
5:53 am34 °FClear.No wind92%30.09 "Hg10 mi
4:53 am34 °FClear.No wind92%30.08 "Hg10 mi
3:53 am35 °FClear.5 mph92%30.06 "Hg10 mi
2:53 am36 °FClear.3 mph92%30.03 "Hg10 mi
1:53 am37 °FClear.No wind93%30.04 "Hg10 mi
12:53 am38 °FPassing clouds.5 mph86%30.04 "Hg10 mi
11:53 pm
Thu, Oct 17
40 °FClear.6 mph83%30.04 "Hg10 mi
10:53 pm45 °FOvercast.7 mph71%30.03 "Hg10 mi
9:53 pm47 °FMostly cloudy.6 mph69%30.02 "Hg10 mi
8:53 pm48 °FMostly cloudy.7 mph66%30.01 "Hg10 mi
7:53 pm48 °FOvercast.3 mph66%29.99 "Hg10 mi
6:53 pm49 °FOvercast.12 mph61%29.98 "Hg10 mi
5:53 pm51 °FMore clouds than sun.7 mph54%29.96 "Hg10 mi
4:53 pm51 °FOvercast.14 mph56%29.95 "Hg10 mi
3:53 pm52 °FPartly sunny.12 mph57%29.94 "Hg10 mi
2:53 pm51 °FMostly cloudy.14 mph59%29.94 "Hg10 mi
1:53 pm50 °FPartly sunny.12 mph59%29.95 "Hg10 mi
12:53 pm49 °FOvercast.12 mph61%29.96 "Hg10 mi
Weather by CustomWeather, © 2019

See weather overview